パンスターズ彗星

C/2020 S4 ( PanSTARRS )

English version
Home page
Updated on September 18, 2021

---------------------------------------------------------------------

・ プロフィール

発見日 2020年9月16日
発見光度 21.3等
発見者 Pan-STARRS 1 telescope (Haleakala)

・ 写真集

・ 軌道要素

Epoch 2023 Feb. 25.0 TT = JDT 2460000.5
T 2023 Feb.  9.25362 TT                                 Rudenko
q   3.3697146            (2000.0)            P               Q
z  -0.0003435      Peri.   20.99163     -0.73121039     -0.60712619
 +/-0.0000067      Node   117.72254     +0.56505167     -0.79449791
e   1.0011574      Incl.   20.56952     +0.38216223     +0.01307139
From 151 observations 2020 Sept. 16-2021 Aug. 30, mean residual 0".4.

・ 星図

・ 光度変化

        m1 = 7.0 + 5 logΔ + 10.0 log r

---------------------------------------------------------------------

軌道要素はM.P.E.C. 2021-R75に掲載されたものです。
星図はステラナビゲータ Ver.10 (アストロアーツ) で作成したものです。
光度グラフはComet for Windowsで作成したものです。

---------------------------------------------------------------------

Copyright(C) Seiichi Yoshida (comet@aerith.net). All rights reserved.